Location: Huntsville
(41.2590°N, 111.7678°W)
Time: 18:32:40
(UTC+00:00)

Courier 1B Rocket - Pass Details

Date: 18 June 2021
Orbit: 920 x 1202 km, 28.2° (Epoch: 02 August)

Event Time Altitude Azimuth Distance (km) Brightness Sun altitude
Rises 05:31:27 0° 250° (WSW) 3,632 8.1 -19.9°
Reaches altitude 10° 05:34:38 10° 237° (WSW) 2,652 7.2 -20.2°
Enters shadow 05:38:19 22° 203° (SSW) 1,887 6.1 -20.5°
Maximum altitude 05:39:32 24° 186° (S) 1,823 - -20.6°
Drops below altitude 10° 05:44:21 10° 135° (SE) 2,602 - -21.0°
Sets 05:47:26 0° 121° (ESE) 3,547 - -21.2°
